Helicity
187 74 121 110 226 166 124 98 284 209 258 235 188 61 51 107 153 112 100 133 172 211
353 254 152 92 82 41 102 116 104 81 19 55 60 124 202 189 164 173 130 183 221 219
150 74 38 28 91 32 -10 85 95 181 102 133 66 62 125 157 187 194 237 194 119 152
21 46 1 -10 -6 -12 -1 12 41 36 27 25 45 89 106 96 113 113 83 116 101 107
30 32 35 42 50 52 44 46 44 43 44 45 40 42 63 81 102 117 141 151 137 111
39 38 44 46 53 57 63 66 72 76 75 81 88 85 77 72 93 107 113 120 159 136
34 41 50 52 52 59 61 65 73 67 67 83 99 104 105 109 110 120 140 166 168 159
4 9 25 39 57 73 82 82 83 86 102 102 89 92 113 113 116 117 110 132 155 175
50 58 48 34 25 23 38 60 93 127 136 138 129 147 138 116 123 127 125 126 122 120
56 54 53 56 52 60 53 38 51 79 103 143 153 180 191 178 138 135 148 157 173 158
79 90 106 108 97 82 59 54 58 67 78 96 122 177 190 205 184 165 148 153 167 201
108 114 120 111 94 87 69 78 77 71 66 66 90 162 190 191 168 182 181 157 155 164
84 91 114 92 108 96 88 50 12 32 52 68 86 134 150 165 141 176 184 195 176 138
124 89 52 39 22 1 11 47 70 61 68 79 75 114 188 192 144 141 164 173 187 177
Wind_Speed
54 56 53 51 34 51 54 50 47 50 49 49 57 67 73 71 65 59 62 63 60 56
43 40 43 48 32 38 45 50 51 57 58 64 68 69 66 64 56 53 60 60 62 57
38 35 33 34 31 33 39 48 53 61 66 70 64 56 51 53 52 53 52 52 50 51
32 32 34 34 34 37 41 42 46 47 53 52 55 51 45 47 55 57 55 49 50 50
31 32 35 37 40 43 45 46 50 55 59 59 58 60 64 60 54 51 49 56 53 52
42 43 44 45 46 47 49 50 52 53 56 57 58 62 64 65 63 62 59 62 53 54
48 50 52 53 53 53 54 54 56 57 55 54 56 60 61 59 57 57 59 52 51 51
57 57 58 59 61 62 63 64 65 65 64 62 61 61 63 63 63 61 57 53 50 48
61 62 64 65 64 64 66 68 68 69 69 69 67 68 68 66 67 69 70 71 67 64
70 71 71 71 71 71 69 68 68 71 75 75 76 74 73 71 68 68 67 68 66 65
71 71 73 74 76 77 77 79 79 77 76 78 77 79 78 77 73 69 69 67 64 63
73 78 80 82 82 83 83 84 85 83 82 82 83 82 81 79 78 76 75 73 68 66
78 82 86 88 90 86 88 89 86 85 82 82 83 81 80 79 80 82 79 76 73 71
79 83 85 85 82 86 87 88 89 90 87 84 81 81 79 78 77 77 79 79 78 74
Wind_Direction
279 282 286 287 283 262 263 269 257 262 259 258 256 257 264 268 271 271 278 276 274 278
313 303 294 291 290 292 276 267 267 260 265 264 260 265 273 274 275 274 273 277 280 278
304 317 315 312 313 305 292 275 272 273 275 271 273 275 277 281 277 277 279 282 287 284
320 305 312 323 308 298 291 291 292 288 281 285 280 278 277 281 281 276 279 281 284 287
313 310 312 306 301 303 303 300 287 281 278 278 279 278 275 277 279 276 278 278 278 279
337 329 326 321 316 315 312 307 306 305 298 293 289 285 281 278 276 276 278 276 275 273
338 329 325 324 323 320 318 316 311 308 309 311 305 295 292 291 289 285 281 280 277 276
325 326 324 320 316 316 314 311 309 307 306 304 300 297 294 291 289 287 285 283 278 276
329 328 324 323 321 319 315 312 310 307 304 302 300 298 296 293 289 286 282 280 279 278
323 323 322 321 321 319 317 315 312 308 305 301 297 297 296 294 291 287 284 281 279 278
325 323 322 320 317 315 314 312 309 307 305 302 299 297 295 293 290 288 285 282 279 275
324 320 319 316 314 313 311 310 307 305 304 302 299 298 296 293 289 285 283 282 279 275
322 319 317 315 312 311 309 307 306 304 303 302 300 299 298 294 288 283 281 280 278 274
321 319 318 315 313 311 308 308 306 304 303 303 302 300 300 298 291 286 281 277 275 273